SCP
0 0 0 0 0 0 0 0 0 -0 -0 -0 -0 -0 -0 -0 0 0 0 0 0 0 0 0 0 0 0 0 0 0 0 0 0 0 0 0 0 0 0 0 0 0 0
0 0 0 0 0 0 0 0 0 0 0 0 0 0 0 0 0 0 0 0 0 0 0 0 0 0 0 0 0 0 0 0 0 0 0 0 0 0 0 0 0 0 0
0 0 0 0 0 0 0 0 0 0 0 0 0 0 0 0 0 0 0 0 0 0 0 0 0 0 0 0 0 0 0 0 0 0 0 0 0 0 0 0 0 0 0
0 0 0 0 0 0 0 0 0 0 0 0 0 0 0 0 0 0 0 0 0 0 0 0 0 0 0 0 0 0 0 0 0 0 0 0 0 0 0 0 0 0 0
0 0 0 0 0 0 0 0 0 0 0 0 0 0 0 0 0 0 0 0 0 0 0 0 0 0 0 0 0 0 0 0 0 0 0 0 0 0 0 0 0 0 0
0 0 0 0 0 0 0 0 0 0 0 0 0 0 0 0 0 0 0 0 0 0 0 0 0 0 0 0 0 0 0 0 0 0 0 0 0 0 0 0 0 0 0
0 0 0 0 0 0 0 0 0 0 0 0 0 0 0 0 0 0 0 0 0 0 0 0 0 0 0 0 0 0 0 0 0 0 0 0 0 0 0 0 0 0 0
0 0 0 0 0 0 0 0 0 0 0 0 0 0 0 0 0 0 0 0 0 0 0 0 0 0 0 0 0 0 0 0 0 0 0 0 0 0 0 0 0 0 0
0 0 0 0 0 0 0 0 0 0 0 0 0 0 0 0 0 0 0 0 0 0 0 0 0 0 0 0 0 0 0 0 0 0 0 0 0 0 0 0 0 0 0
0 0 0 0 0 0 0 0 0 0 0 0 0 0 0 0 0 0 0 0 0 0 0 0 0 0 0 0 0 0 0 0 0 0 0 0 0 0 0 0 0 0 0
0 0 0 0 0 0 0 0 0 0 0 0 0 0 0 0 0 0 0 0 0 0 0 0 0 0 0 0 0 0 0 0 0 0 0 0 0 0 0 0 0 0 0
0 0 0 0 0 0 0 0 0 0 0 0 0 0 0 0 0 0 0 0 0 0 -0 0 0 0 0 0 0 0 0 0 0 0 0 0 0 0 0 0 0 0 0
0 0 0 0 0 0 0 0 0 0 0 0 0 0 0 0 0 0 0 0 0 0 0 -0 0 0 0 0 0 0 0 0 0 0 0 0 0 0 0 0 0 0 0
0 0 0 0 0 0 0 0 0 0 0 0 0 0 0 0 0 0 0 0 0 -0 0 0 0 0 0 0 0 0 0 0 0 0 0 0 0 0 0 0 0 0 0
0 0 0 0 0 0 0 0 0 0 0 0 0 0 0 0 0 0 0 0 0 -0 -0 0 0 0 0 0 0 0 0 0 0 0 0 0 0 0 0 0 0 0 0
0 0 0 0 0 0 0 0 0 0 0 0 0 0 0 -0 -0 0 0 0 0 0 -0 0 0 0 0 0 0 0 0 0 0 0 0 0 0 0 0 0 0 0 0
0 0 0 0 0 0 0 0 0 0 0 0 0 0 0 0 0 0 0 0 0 0 0 0 0 0 0 0 0 0 0 0 0 0 0 0 0 0 0 0 0 0 0
0 0 0 0 0 0 0 0 0 0 0 0 0 0 0 0 0 0 0 0 0 0 0 0 0 0 0 0 0 -0 0 0 0 0 0 0 0 0 0 0 0 0 0
0 0 0 0 0 0 0 0 0 0 0 0 0 0 0 0 0 0 0 0 0 0 0 0 0 0 0 0 -0 0 0 0 0 0 0 0 0 0 0 0 0 0 0
0 0 0 0 0 0 0 0 0 0 0 0 0 0 0 0 0 0 0 0 0 0 0 0 0 0 0 0 0 -0 0 0 0 0 0 0 0 0 0 0 0 0 0
0 0 0 0 0 0 0 0 0 0 0 0 0 0 0 0 0 0 0 0 0 0 0 0 0 0 0 0 0 -0 0 0 0 0 0 0 0 0 0 0 0 0 0
0 0 0 0 0 0 0 0 0 0 0 0 0 0 0 0 0 0 0 0 0 0 0 0 0 0 0 0 0 0 0 0 0 0 0 0 0 0 0 0 0 0 0
0 0 0 0 0 0 0 0 0 0 0 0 0 0 0 0 0 0 0 0 0 0 0 0 0 0 0 0 0 0 0 0 0 0 0 0 0 0 0 0 0 0 0
0 0 0 0 0 0 0 0 0 0 0 0 0 0 0 0 0 0 0 0 0 0 0 0 0 0 0 0 0 0 0 0 0 0 0 0 0 0 0 0 0 0 0
0 0 0 0 0 0 0 0 0 0 0 0 0 0 0 0 0 0 0 0 0 0 0 0 0 0 -0 0 0 0 0 0 0 0 0 0 0 0 0 0 0 0 0
0 0 0 0 0 0 0 0 0 0 0 0 0 0 0 0 0 0 0 0 0 0 0 0 0 -0 -0 0 0 0 0 0 0 0 0 0 0 0 0 0 0 0 0
Wind_Speed_500mb
38 45 51 57 63 67 66 68 74 74 74 77 77 78 81 80 76 75 71 68 65 64 60 58 54 54 53 56 58 58 54 55 70 76 75 74 69 75 79 77 75 78 77
43 48 54 58 64 69 70 72 77 76 78 77 79 84 85 83 77 74 72 69 67 64 60 56 56 54 53 56 57 58 63 60 65 82 72 73 77 70 75 82 75 78 77
48 53 59 61 67 71 71 76 77 77 76 77 80 85 86 83 78 72 68 69 66 60 57 55 57 54 56 56 57 62 66 69 70 76 83 79 78 76 73 81 81 82 78
53 56 60 62 69 72 70 76 76 74 72 77 81 85 85 82 76 70 66 66 65 63 63 64 61 57 56 56 62 65 68 67 69 76 85 76 80 72 74 81 87 86 85
61 64 64 64 69 71 69 75 77 69 71 75 81 85 86 81 76 67 65 66 68 67 64 64 64 61 63 64 66 67 66 71 70 74 84 80 74 69 73 78 83 85 87
64 66 63 64 70 69 71 76 73 69 72 76 79 85 87 82 75 66 64 64 66 66 69 66 65 67 67 64 65 65 66 72 78 76 84 84 90 81 79 80 88 87 84
63 62 60 64 68 67 72 75 70 70 75 79 83 87 89 83 72 66 64 66 67 68 67 68 70 70 70 70 70 70 68 75 71 76 83 89 94 93 85 81 94 94 89
61 59 60 65 66 69 72 70 68 72 77 83 89 91 92 86 70 66 66 65 65 61 64 66 69 73 70 67 73 78 76 76 78 77 86 93 89 84 90 86 88 97 91
59 57 60 63 66 71 71 69 70 76 82 88 91 95 93 87 67 63 64 60 61 62 60 66 67 72 75 67 71 82 91 92 81 84 88 88 87 83 82 82 83 91 86
55 55 60 64 68 69 69 70 74 79 87 93 98 94 84 79 64 58 54 51 58 63 62 67 69 74 73 69 74 82 95 96 90 92 92 88 86 83 81 83 92 98 88
54 58 60 62 64 64 65 68 77 85 91 97 97 88 71 64 60 54 47 51 57 65 68 71 77 75 77 77 76 89 95 86 88 89 91 93 88 84 77 71 88 102 96
55 58 58 59 59 60 65 71 78 86 92 94 86 79 65 59 53 50 50 50 54 62 70 71 78 78 78 81 80 73 68 69 77 84 86 86 83 78 67 57 54 82 97
55 55 55 56 57 61 68 74 80 84 83 78 69 71 68 59 60 55 55 53 59 63 69 68 76 78 77 79 72 66 66 69 76 75 70 68 64 60 54 53 63 85 94
52 50 50 53 58 65 71 74 76 77 71 66 66 61 63 62 62 62 62 67 67 64 68 77 77 75 74 74 74 65 64 63 68 62 56 58 56 55 58 61 69 76 79
49 48 50 56 62 68 73 74 67 64 62 59 55 55 59 61 62 62 64 71 70 70 79 76 75 76 78 75 72 65 61 54 62 60 55 53 52 50 50 54 61 67 70
45 47 52 59 66 70 75 74 59 55 58 55 50 47 51 55 55 61 64 62 62 64 67 69 73 72 72 72 70 67 60 53 55 63 55 48 45 44 44 46 51 59 65
44 48 55 62 67 71 68 68 73 56 49 55 53 53 53 53 55 56 55 60 60 60 60 63 66 68 69 68 66 62 62 52 47 60 51 45 41 39 38 42 49 54 55
44 50 57 62 66 64 62 62 61 64 63 56 56 59 57 59 56 47 54 56 60 53 53 61 66 66 65 65 63 59 56 49 43 57 52 42 38 34 33 40 45 51 51
47 52 58 61 60 59 57 56 57 58 60 62 60 57 61 62 56 52 50 54 59 63 63 63 64 65 64 64 60 55 52 45 40 45 52 42 36 33 33 40 44 47 48
50 55 58 57 55 54 53 53 54 56 57 59 59 58 62 66 66 64 56 54 57 60 63 66 67 65 63 61 58 54 49 42 35 38 52 42 35 30 31 38 40 43 45
52 52 52 52 52 50 49 49 51 54 55 56 56 51 51 55 61 61 62 58 58 61 65 67 67 64 61 59 56 53 50 43 33 31 44 42 34 28 27 33 34 37 42
49 48 48 48 47 46 47 47 47 50 52 53 53 49 45 49 54 58 59 57 57 58 63 68 67 62 59 57 56 54 51 45 33 26 35 43 32 27 25 29 32 38 41
46 44 43 44 44 44 44 44 45 46 48 48 48 49 48 50 54 59 61 59 57 58 60 66 68 63 56 56 54 53 52 47 37 27 30 43 36 29 25 28 33 41 46
41 40 40 40 41 42 41 41 41 42 43 45 45 44 46 50 56 60 62 59 57 56 57 65 66 60 59 58 57 53 49 45 37 28 27 33 39 32 28 30 34 41 45
38 38 37 37 38 39 38 37 38 40 41 43 43 43 44 49 55 61 61 59 59 59 58 63 63 61 60 59 54 48 44 44 36 29 28 28 33 32 32 31 34 39 45
35 34 35 35 35 35 37 38 37 38 40 41 42 43 47 50 54 62 62 60 64 63 58 62 65 62 64 61 56 48 39 33 29 29 27 26 30 31 34 33 34 39 46
Wind_Direction_500mb
317 320 323 326 331 331 331 331 331 329 328 327 326 326 325 322 320 316 313 310 307 304 301 299 295 296 297 297 300 301 299 293 292 293 286 273 287 282 276 277 276 267 264
314 313 317 321 325 325 326 328 329 327 326 325 323 323 321 319 315 313 310 308 306 302 301 297 297 298 295 298 296 295 298 299 295 294 295 291 274 285 282 278 273 270 262
314 309 311 317 320 322 323 325 325 324 322 322 323 322 321 317 311 309 308 305 302 298 297 295 295 295 294 295 293 295 296 297 296 293 292 292 289 274 283 279 275 272 263
314 309 309 312 316 319 317 320 320 320 319 322 323 323 321 316 310 308 306 302 299 297 298 299 298 293 290 292 290 288 295 295 299 296 295 291 290 282 278 277 274 273 266
307 310 306 306 313 315 314 317 318 317 318 322 325 325 322 317 312 310 304 300 299 298 297 297 299 298 295 294 288 291 291 293 295 293 290 288 286 286 275 272 274 274 267
299 305 301 303 310 311 311 314 314 313 317 321 324 326 323 317 314 310 302 299 297 295 296 298 299 299 300 297 293 289 284 286 288 288 285 280 281 280 277 269 268 260 246
302 301 297 303 306 307 309 311 310 311 315 318 321 323 322 316 313 308 303 298 296 295 296 296 298 299 300 303 300 295 291 284 284 287 284 277 277 275 277 273 255 255 255
300 296 297 303 303 306 308 309 308 310 314 317 319 320 320 316 312 307 303 298 296 294 294 295 296 300 301 300 298 295 293 289 285 287 283 286 280 277 268 267 263 260 261
295 296 298 302 303 306 308 308 309 311 313 316 318 318 318 312 309 305 303 301 298 298 296 296 297 296 303 301 300 297 296 292 287 290 289 284 285 278 265 261 261 243 237
295 296 301 303 304 305 306 307 309 312 314 316 317 317 316 310 309 304 303 307 303 301 301 299 297 300 301 299 298 297 296 294 293 297 294 289 285 279 267 255 252 236 233
295 298 300 301 302 302 303 306 310 312 314 315 316 317 317 312 311 309 308 305 303 304 303 301 301 303 303 302 300 295 291 298 297 295 293 289 284 280 268 257 244 241 231
293 298 300 302 302 303 305 310 313 315 316 316 318 319 322 318 316 310 309 305 306 304 302 301 302 306 305 305 306 304 303 304 299 297 288 286 282 277 266 259 254 245 243
293 297 300 302 303 305 309 312 315 317 317 317 319 320 324 324 319 316 314 314 310 308 305 305 304 306 310 312 313 314 312 312 308 299 291 285 279 274 270 267 253 236 234
293 297 300 303 306 308 312 315 318 318 317 317 321 319 316 319 318 317 320 316 313 315 314 308 311 312 313 317 317 315 314 309 314 306 295 288 286 278 267 260 246 234 229
292 298 302 305 308 311 313 316 320 317 317 316 312 315 314 310 314 313 313 313 315 315 311 312 315 318 318 320 319 317 321 317 320 315 305 294 290 281 262 244 235 231 226
293 298 304 308 311 314 316 316 319 317 316 317 319 316 313 309 311 312 313 314 313 312 314 316 316 318 320 322 322 320 323 322 321 317 307 298 292 281 263 243 231 224 223
293 300 306 310 313 315 316 318 318 322 317 319 323 328 326 321 320 318 318 313 314 320 318 317 320 322 323 323 323 321 323 322 323 315 307 299 293 280 256 236 222 216 212
296 302 307 311 313 313 316 316 317 319 322 322 324 329 331 330 331 329 323 321 320 324 324 323 325 327 326 325 324 322 322 320 319 311 309 301 293 278 252 230 222 215 212
300 305 308 311 311 312 313 315 315 316 318 321 324 327 330 331 336 343 334 331 329 331 332 330 330 330 328 326 325 321 322 320 317 309 305 300 291 274 251 233 225 219 213
303 307 308 310 309 310 312 313 314 315 318 322 326 330 329 333 339 340 342 339 336 334 334 331 333 332 329 327 326 323 320 318 315 310 308 300 290 274 252 240 230 220 210
306 307 307 307 308 310 311 312 313 315 318 321 325 331 333 332 334 336 338 340 339 338 337 334 333 333 330 328 327 324 321 318 313 308 301 302 288 270 246 237 229 213 210
306 306 306 306 307 309 311 313 314 315 319 322 324 329 333 333 337 339 337 337 338 339 339 338 336 334 331 329 328 324 320 318 313 304 297 301 285 263 239 229 216 204 197
305 306 306 306 308 308 310 313 315 317 319 322 325 328 334 338 340 342 340 337 336 338 341 341 339 336 333 330 327 322 317 315 309 291 284 279 284 257 237 223 210 201 191
309 309 308 306 307 309 311 314 317 319 321 324 326 328 333 337 340 342 342 341 338 338 342 344 341 337 336 335 331 324 316 313 299 275 272 267 283 257 236 219 209 198 192
312 312 311 310 309 310 314 317 319 322 325 327 330 330 334 337 340 344 344 344 343 341 342 342 343 342 341 339 332 322 311 302 282 260 256 254 265 248 232 218 206 199 194
317 316 316 315 314 315 316 318 322 325 328 331 332 333 336 339 342 346 346 347 347 342 341 344 346 346 346 340 333 322 310 298 275 248 242 245 248 234 225 213 202 197 195
Wind_Speed_850mb
38 45 51 57 63 67 66 68 74 74 74 77 77 78 81 80 76 75 71 68 65 64 60 58 54 54 53 56 58 58 54 55 70 76 75 74 69 75 79 77 75 78 77
43 48 54 58 64 69 70 72 77 76 78 77 79 84 85 83 77 74 72 69 67 64 60 56 56 54 53 56 57 58 63 60 65 82 72 73 77 70 75 82 75 78 77
48 53 59 61 67 71 71 76 77 77 76 77 80 85 86 83 78 72 68 69 66 60 57 55 57 54 56 56 57 62 66 69 70 76 83 79 78 76 73 81 81 82 78
53 56 60 62 69 72 70 76 76 74 72 77 81 85 85 82 76 70 66 66 65 63 63 64 61 57 56 56 62 65 68 67 69 76 85 76 80 72 74 81 87 86 85
61 64 64 64 69 71 69 75 77 69 71 75 81 85 86 81 76 67 65 66 68 67 64 64 64 61 63 64 66 67 66 71 70 74 84 80 74 69 73 78 83 85 87
64 66 63 64 70 69 71 76 73 69 72 76 79 85 87 82 75 66 64 64 66 66 69 66 65 67 67 64 65 65 66 72 78 76 84 84 90 81 79 80 88 87 84
63 62 60 64 68 67 72 75 70 70 75 79 83 87 89 83 72 66 64 66 67 68 67 68 70 70 70 70 70 70 68 75 71 76 83 89 94 93 85 81 94 94 89
61 59 60 65 66 69 72 70 68 72 77 83 89 91 92 86 70 66 66 65 65 61 64 66 69 73 70 67 73 78 76 76 78 77 86 93 89 84 90 86 88 97 91
59 57 60 63 66 71 71 69 70 76 82 88 91 95 93 87 67 63 64 60 61 62 60 66 67 72 75 67 71 82 91 92 81 84 88 88 87 83 82 82 83 91 86
55 55 60 64 68 69 69 70 74 79 87 93 98 94 84 79 64 58 54 51 58 63 62 67 69 74 73 69 74 82 95 96 90 92 92 88 86 83 81 83 92 98 88
54 58 60 62 64 64 65 68 77 85 91 97 97 88 71 64 60 54 47 51 57 65 68 71 77 75 77 77 76 89 95 86 88 89 91 93 88 84 77 71 88 102 96
55 58 58 59 59 60 65 71 78 86 92 94 86 79 65 59 53 50 50 50 54 62 70 71 78 78 78 81 80 73 68 69 77 84 86 86 83 78 67 57 54 82 97
55 55 55 56 57 61 68 74 80 84 83 78 69 71 68 59 60 55 55 53 59 63 69 68 76 78 77 79 72 66 66 69 76 75 70 68 64 60 54 53 63 85 94
52 50 50 53 58 65 71 74 76 77 71 66 66 61 63 62 62 62 62 67 67 64 68 77 77 75 74 74 74 65 64 63 68 62 56 58 56 55 58 61 69 76 79
49 48 50 56 62 68 73 74 67 64 62 59 55 55 59 61 62 62 64 71 70 70 79 76 75 76 78 75 72 65 61 54 62 60 55 53 52 50 50 54 61 67 70
45 47 52 59 66 70 75 74 59 55 58 55 50 47 51 55 55 61 64 62 62 64 67 69 73 72 72 72 70 67 60 53 55 63 55 48 45 44 44 46 51 59 65
44 48 55 62 67 71 68 68 73 56 49 55 53 53 53 53 55 56 55 60 60 60 60 63 66 68 69 68 66 62 62 52 47 60 51 45 41 39 38 42 49 54 55
44 50 57 62 66 64 62 62 61 64 63 56 56 59 57 59 56 47 54 56 60 53 53 61 66 66 65 65 63 59 56 49 43 57 52 42 38 34 33 40 45 51 51
47 52 58 61 60 59 57 56 57 58 60 62 60 57 61 62 56 52 50 54 59 63 63 63 64 65 64 64 60 55 52 45 40 45 52 42 36 33 33 40 44 47 48
50 55 58 57 55 54 53 53 54 56 57 59 59 58 62 66 66 64 56 54 57 60 63 66 67 65 63 61 58 54 49 42 35 38 52 42 35 30 31 38 40 43 45
52 52 52 52 52 50 49 49 51 54 55 56 56 51 51 55 61 61 62 58 58 61 65 67 67 64 61 59 56 53 50 43 33 31 44 42 34 28 27 33 34 37 42
49 48 48 48 47 46 47 47 47 50 52 53 53 49 45 49 54 58 59 57 57 58 63 68 67 62 59 57 56 54 51 45 33 26 35 43 32 27 25 29 32 38 41
46 44 43 44 44 44 44 44 45 46 48 48 48 49 48 50 54 59 61 59 57 58 60 66 68 63 56 56 54 53 52 47 37 27 30 43 36 29 25 28 33 41 46
41 40 40 40 41 42 41 41 41 42 43 45 45 44 46 50 56 60 62 59 57 56 57 65 66 60 59 58 57 53 49 45 37 28 27 33 39 32 28 30 34 41 45
38 38 37 37 38 39 38 37 38 40 41 43 43 43 44 49 55 61 61 59 59 59 58 63 63 61 60 59 54 48 44 44 36 29 28 28 33 32 32 31 34 39 45
35 34 35 35 35 35 37 38 37 38 40 41 42 43 47 50 54 62 62 60 64 63 58 62 65 62 64 61 56 48 39 33 29 29 27 26 30 31 34 33 34 39 46
Wind_Direction_850mb
317 320 323 326 331 331 331 331 331 329 328 327 326 326 325 322 320 316 313 310 307 304 301 299 295 296 297 297 300 301 299 293 292 293 286 273 287 282 276 277 276 267 264
314 313 317 321 325 325 326 328 329 327 326 325 323 323 321 319 315 313 310 308 306 302 301 297 297 298 295 298 296 295 298 299 295 294 295 291 274 285 282 278 273 270 262
314 309 311 317 320 322 323 325 325 324 322 322 323 322 321 317 311 309 308 305 302 298 297 295 295 295 294 295 293 295 296 297 296 293 292 292 289 274 283 279 275 272 263
314 309 309 312 316 319 317 320 320 320 319 322 323 323 321 316 310 308 306 302 299 297 298 299 298 293 290 292 290 288 295 295 299 296 295 291 290 282 278 277 274 273 266
307 310 306 306 313 315 314 317 318 317 318 322 325 325 322 317 312 310 304 300 299 298 297 297 299 298 295 294 288 291 291 293 295 293 290 288 286 286 275 272 274 274 267
299 305 301 303 310 311 311 314 314 313 317 321 324 326 323 317 314 310 302 299 297 295 296 298 299 299 300 297 293 289 284 286 288 288 285 280 281 280 277 269 268 260 246
302 301 297 303 306 307 309 311 310 311 315 318 321 323 322 316 313 308 303 298 296 295 296 296 298 299 300 303 300 295 291 284 284 287 284 277 277 275 277 273 255 255 255
300 296 297 303 303 306 308 309 308 310 314 317 319 320 320 316 312 307 303 298 296 294 294 295 296 300 301 300 298 295 293 289 285 287 283 286 280 277 268 267 263 260 261
295 296 298 302 303 306 308 308 309 311 313 316 318 318 318 312 309 305 303 301 298 298 296 296 297 296 303 301 300 297 296 292 287 290 289 284 285 278 265 261 261 243 237
295 296 301 303 304 305 306 307 309 312 314 316 317 317 316 310 309 304 303 307 303 301 301 299 297 300 301 299 298 297 296 294 293 297 294 289 285 279 267 255 252 236 233
295 298 300 301 302 302 303 306 310 312 314 315 316 317 317 312 311 309 308 305 303 304 303 301 301 303 303 302 300 295 291 298 297 295 293 289 284 280 268 257 244 241 231
293 298 300 302 302 303 305 310 313 315 316 316 318 319 322 318 316 310 309 305 306 304 302 301 302 306 305 305 306 304 303 304 299 297 288 286 282 277 266 259 254 245 243
293 297 300 302 303 305 309 312 315 317 317 317 319 320 324 324 319 316 314 314 310 308 305 305 304 306 310 312 313 314 312 312 308 299 291 285 279 274 270 267 253 236 234
293 297 300 303 306 308 312 315 318 318 317 317 321 319 316 319 318 317 320 316 313 315 314 308 311 312 313 317 317 315 314 309 314 306 295 288 286 278 267 260 246 234 229
292 298 302 305 308 311 313 316 320 317 317 316 312 315 314 310 314 313 313 313 315 315 311 312 315 318 318 320 319 317 321 317 320 315 305 294 290 281 262 244 235 231 226
293 298 304 308 311 314 316 316 319 317 316 317 319 316 313 309 311 312 313 314 313 312 314 316 316 318 320 322 322 320 323 322 321 317 307 298 292 281 263 243 231 224 223
293 300 306 310 313 315 316 318 318 322 317 319 323 328 326 321 320 318 318 313 314 320 318 317 320 322 323 323 323 321 323 322 323 315 307 299 293 280 256 236 222 216 212
296 302 307 311 313 313 316 316 317 319 322 322 324 329 331 330 331 329 323 321 320 324 324 323 325 327 326 325 324 322 322 320 319 311 309 301 293 278 252 230 222 215 212
300 305 308 311 311 312 313 315 315 316 318 321 324 327 330 331 336 343 334 331 329 331 332 330 330 330 328 326 325 321 322 320 317 309 305 300 291 274 251 233 225 219 213
303 307 308 310 309 310 312 313 314 315 318 322 326 330 329 333 339 340 342 339 336 334 334 331 333 332 329 327 326 323 320 318 315 310 308 300 290 274 252 240 230 220 210
306 307 307 307 308 310 311 312 313 315 318 321 325 331 333 332 334 336 338 340 339 338 337 334 333 333 330 328 327 324 321 318 313 308 301 302 288 270 246 237 229 213 210
306 306 306 306 307 309 311 313 314 315 319 322 324 329 333 333 337 339 337 337 338 339 339 338 336 334 331 329 328 324 320 318 313 304 297 301 285 263 239 229 216 204 197
305 306 306 306 308 308 310 313 315 317 319 322 325 328 334 338 340 342 340 337 336 338 341 341 339 336 333 330 327 322 317 315 309 291 284 279 284 257 237 223 210 201 191
309 309 308 306 307 309 311 314 317 319 321 324 326 328 333 337 340 342 342 341 338 338 342 344 341 337 336 335 331 324 316 313 299 275 272 267 283 257 236 219 209 198 192
312 312 311 310 309 310 314 317 319 322 325 327 330 330 334 337 340 344 344 344 343 341 342 342 343 342 341 339 332 322 311 302 282 260 256 254 265 248 232 218 206 199 194
317 316 316 315 314 315 316 318 322 325 328 331 332 333 336 339 342 346 346 347 347 342 341 344 346 346 346 340 333 322 310 298 275 248 242 245 248 234 225 213 202 197 195